Roosevelt Roads, PR

10:52 PM AST on August 19, 2017 (GMT -0400)
Roosevelt Roads Ns

Weather History for TJNR - January, 2013

Change the Weather History Date:

Wednesday, January 9, 2013

  Actual Average Record
Temperature  
Mean Temperature 80 °F -  
Max Temperature 82 °F 81 °F 84 °F (2001)
Min Temperature 77 °F 69 °F 46 °F (1998)
Cooling Degree Days 14    
Growing Degree Days 30 (Base 50)    
Moisture  
Dew Point 69 °F    
Average Humidity 70    
Maximum Humidity 83    
Minimum Humidity 54    
Precipitation  
Precipitation 0.04 in - - ()
Sea Level Pressure  
Sea Level Pressure 30.15 in    
Wind  
Wind Speed 12 mph (ENE)    
Max Wind Speed 16 mph    
Max Gust Speed 25 mph    
Visibility 10 miles    
Events Rain    
Averages and records for this station are not official NWS values.
T = Trace of Precipitation, MM = Missing Value Source: NWS Daily Summary

Daily Weather History Graph

Daily Weather History Graph

Search for Another Location

Airport or City:

Trip Planner

Search our weather history database for the weather conditions in past years. The results will help you decide how hot, cold, wet, or windy it might be!

Date:

Astronomy

Jan. 09, 2013 Rise Set
Actual Time 6:56 AM AST 6:03 PM AST
Civil Twilight 6:33 AM AST 6:26 PM AST
Nautical Twilight 6:06 AM AST 6:53 PM AST
Astronomical Twilight 5:39 AM AST 7:20 PM AST
Moon 4:31 AM AST (1/9) 4:00 PM AST (1/9)
Length of Visible Light 11h 53m
Length of Day
11h 06m
Waning Crescent, 7% of the Moon is Illuminated
Jan 9
Waning Crescent
Jan 11
New
Jan 18
First Quarter
Jan 27
Full
Feb 3
Last Quarter

Hourly Weather History & Observations

Time (AST) Temp. Heat Index Dew Point Humidity Pressure Visibility Wind Dir Wind Speed Gust Speed Precip Events Conditions
12:23 AM 77.0 °F - 71.6 °F 83% 30.14 in 8.0 mi East 9.2 mph 18.4 mph 0.01 in Rain Light Rain
12:30 AM 78.8 °F - 71.6 °F 78% 30.14 in 10.0 mi East 11.5 mph 18.4 mph 0.01 in   Overcast
12:44 AM 77.0 °F - 71.6 °F 83% 30.14 in 10.0 mi East 11.5 mph 20.7 mph 0.01 in   Overcast
12:53 AM 78.1 °F - 71.1 °F 79% 30.14 in 10.0 mi ENE 13.8 mph 25.3 mph 0.01 in   Overcast
1:53 AM 78.1 °F - 70.0 °F 76% 30.12 in 10.0 mi ENE 11.5 mph 23.0 mph N/A   Overcast
2:53 AM 78.1 °F - 69.1 °F 74% 30.11 in 10.0 mi East 11.5 mph 19.6 mph N/A   Mostly Cloudy
3:40 AM 78.8 °F - 69.8 °F 74% 30.10 in 10.0 mi East 15.0 mph 24.2 mph N/A   Mostly Cloudy
3:53 AM 78.1 °F - 69.1 °F 74% 30.10 in 10.0 mi ENE 12.7 mph 23.0 mph N/A   Scattered Clouds
4:53 AM 78.1 °F - 66.9 °F 68% 30.11 in 10.0 mi East 15.0 mph 23.0 mph N/A   Clear
5:53 AM 78.1 °F - 68.0 °F 71% 30.13 in 10.0 mi East 12.7 mph 21.9 mph N/A   Clear
6:53 AM 78.1 °F - 68.0 °F 71% 30.14 in 10.0 mi East 11.5 mph - N/A   Overcast
7:53 AM 78.1 °F - 72.0 °F 81% 30.17 in 8.0 mi ENE 9.2 mph - N/A   Overcast
8:53 AM 81.0 °F 83.0 °F 66.0 °F 60% 30.19 in 10.0 mi East 11.5 mph - N/A   Mostly Cloudy
9:53 AM 81.0 °F 83.8 °F 68.0 °F 65% 30.20 in 10.0 mi East 16.1 mph 21.9 mph N/A   Scattered Clouds
10:53 AM 82.0 °F 85.5 °F 69.1 °F 65% 30.19 in 10.0 mi ENE 15.0 mph 24.2 mph N/A   Mostly Cloudy
11:53 AM 81.0 °F 84.9 °F 71.1 °F 72% 30.18 in 9.0 mi East 10.4 mph - 0.01 in   Mostly Cloudy
12:53 PM 82.0 °F 85.9 °F 70.0 °F 67% 30.15 in 10.0 mi East 12.7 mph 20.7 mph 0.02 in   Overcast
1:53 PM 82.9 °F 85.4 °F 66.9 °F 58% 30.13 in 10.0 mi ENE 12.7 mph 19.6 mph N/A   Clear
2:53 PM 82.9 °F 84.6 °F 64.9 °F 54% 30.12 in 10.0 mi ENE 10.4 mph 18.4 mph N/A   Clear
3:53 PM 82.0 °F 84.5 °F 66.9 °F 60% 30.12 in 10.0 mi ENE 15.0 mph 21.9 mph N/A   Clear
4:53 PM 81.0 °F 83.0 °F 66.0 °F 60% 30.12 in 10.0 mi ENE 11.5 mph 20.7 mph N/A   Clear
5:53 PM 79.0 °F - 68.0 °F 69% 30.13 in 10.0 mi ENE 10.4 mph - N/A   Partly Cloudy
6:53 PM 78.1 °F - 68.0 °F 71% 30.14 in 10.0 mi ENE 12.7 mph 20.7 mph N/A   Scattered Clouds
7:53 PM 79.0 °F - 69.1 °F 72% 30.15 in 10.0 mi ENE 12.7 mph 24.2 mph N/A   Mostly Cloudy
8:53 PM 78.1 °F - 68.0 °F 71% 30.17 in 10.0 mi East 15.0 mph 23.0 mph N/A   Scattered Clouds
9:53 PM 79.0 °F - 68.0 °F 69% 30.18 in 10.0 mi East 12.7 mph - N/A   Mostly Cloudy
10:53 PM 78.1 °F - 66.0 °F 66% 30.18 in 10.0 mi East 12.7 mph 21.9 mph N/A   Scattered Clouds
11:53 PM 78.1 °F - 66.9 °F 68% 30.18 in 10.0 mi East 10.4 mph - N/A   Scattered Clouds